INTELSAT 33E (IS-33E) (41748 NORAD) Tracking and Keplerian Element Data

This shows tracking and keplerian element data for the satellite.

Feedback or suggestion? Click here.




ElementValue
Catalog41748
NameINTELSAT 33E (IS-33E)
Epoch Orbit1039
Epoch Day145.9214341
Epoch Year2019
RAAN13.6732
Inclination0.0177
Eccentricity0.0002395
Argument of Perigee78.4316
Mean Anonmoly182.8008
Mean Motion1.00272633
Decay Rate4.5E-07
L11 41748U 16053B 19145.92143410 .00000045 00000-0 00000-0 0 9992
L22 41748 0.0177 13.6732 0002395 78.4316 182.8008 1.00272633 10395

Live tracking and technical data element details for INTELSAT 33E (IS-33E) (NORAD 41748). INTELSAT 33E (IS-33E) can be tracked NOW for your location showing map with azimuth and elevation plus other details from your city location.

Track the satellite on the map from your city or location and see movement details for azimuth, elevation, latitude, longitude, range, height, and movement on the map or in text.







IsCatalogInMostPopularTable: catalog: 41748, numindb: 212
Update: records affected: 1



GetName: 41748 INTELSAT 33E (IS-33E)

Hit Count: updated at: Sun, 26 May 2019 19:37:04 GMT